Showing default

USA 23, 18009

Orbit data source: Space-Track

USA 23, 18009 is an American payload satellite in LEO that was launched on Fri, 15 May 1987 UTC via an ATLAS H launch vehicle from the Air Force Western Test Range (AFWTR). Payload-class satellites include a variety of spacecraft equipped with specific instruments for various scientific and technological missions. These include communications satellites like Starlink; space stations such as the ISS; scientific satellites like the Hubble; Earth observation satellites from companies like Planet Labs, Umbra, and HawkEye 360; GPS; miniature CubeSats for education and research; and military/defense satellites.

Loading next visibility...
Identifier
18009, 1987-043E
Orbit
LEO
Country
Flag of USUS
Related business
Manufacturer
Martin Marietta
Mission
Defense Sigint
Bus & Motor
NOSS SSU, Unknown motor
Mass
200 kg wet, 200 kg dry
Launch date (UTC)
1987-05-15 (39 years ago)
Launch vehicle
ATLAS H
Launch site
Air Force Western Test Range (AFWTR)
Object type
Payload
Rocket body
Debris
Shape & HBR
Box + 1 Ant, 5.0 m
Radar Cross Section
1.051 m², Large (>1 m²)

Expand to show TLE details & history
Last TLE update: 3 days ago

TLE from 3 days ago
0 USA 23
1 18009U 87043E   26170.72172080  .00010666  00000-0  63200-3 0  9996
2 18009  63.2953 350.4924 0781651 105.3498 263.5239 13.87426453345840
Epoch: 2026-06-19T17:19Z
TLE epoch observation values (Epoch: 2026-06-19T17:19:16.677Z)
Latitude
-0.00001°
Longitude
-177.27372°
Altitude
1,047.37 km
Speed
7.275 km/s
True Right ascension
23h 21m 58s
True Declination
0° 00' 00"
Sunlit
Object was in daylight at epoch
Visualization orbit readout
Latitude
Unknown
Longitude
Unknown
Altitude
Unknown
Speed
Unknown
Apparent Right ascension
Unknown
Apparent Declination
Unknown
Sunlit
N/A
Visualization observer readout
Local Sidereal Time
00:39:52
Azimuth
Unknown
Elevation
Unknown
Doppler factor
Unknown
Orbital elements
Apogee altitude
1,508.218 km
Perigee altitude
364.724 km
Semi-major axis
7,314.608 km
Eccentricity
0.07817
Inclination
63.2953°
RAAN
350.4924°
Arg. of periapsis
105.3498°
True anomaly
254.75535°
Mean anomaly
263.5239°
Eccentric anomaly
259.12579°
Mean motion
3.46942 °/min
Orbital period
103.76 mins
BSTAR
0.000632
Loading maneuver chart data...
Computing Atmospheric mass density...
Loading historical data...
Loading historical data...
Loading historical data...
Loading historical data...
Loading historical data...
Loading historical data...
Loading historical data...

Documentation

Showing up to 5 results
|